Location: Casalecchio di Reno
(44.4760°N, 11.2757°E)
Time: 09:05:12
(UTC+02:00)

AO-73 - Pass Details

Date: 25 June 2024
Orbit: 555 x 624 km, 97.7° (Epoch: 17 July)

Event Time Altitude Azimuth Distance (km) Brightness Sun altitude
Rises 03:53:34 0° 21° (NNE) 2,748 ? -13.4°
Reaches altitude 10° 03:55:51 10° 30° (NNE) 1,848 ? -13.1°
Maximum altitude 03:59:31 35° 97° (E) 916 ? -12.7°
Drops below altitude 10° 04:03:11 10° 164° (SSE) 1,847 ? -12.3°
Enters shadow 04:03:55 - 168° (SSE) 2,127 ? -12.2°
